Ogallala, NE

5:04 AM MDT on March 24, 2017 (GMT -0600)
Searle

Weather History for KOGA - July, 2013

Change the Weather History Date:

Wednesday, July 24, 2013

  Actual Average Record
Temperature  
Mean Temperature 74 °F -  
Max Temperature 89 °F 87 °F 105 °F (1952)
Min Temperature 59 °F 59 °F 48 °F (1975)
Cooling Degree Days 8    
Growing Degree Days 24 (Base 50)    
Moisture  
Dew Point 59 °F    
Average Humidity 70    
Maximum Humidity 95    
Minimum Humidity 31    
Precipitation  
Precipitation 0.70 in - - ()
Sea Level Pressure  
Sea Level Pressure 30.15 in    
Wind  
Wind Speed 4 mph (SSW)    
Max Wind Speed 30 mph    
Max Gust Speed 66 mph    
Visibility 8 miles    
Events Rain , Thunderstorm    
Averages and records for this station are not official NWS values.
T = Trace of Precipitation, MM = Missing Value Source: NWS Daily Summary

Daily Weather History Graph

Daily Weather History Graph

Search for Another Location

Airport or City:

Trip Planner

Search our weather history database for the weather conditions in past years. The results will help you decide how hot, cold, wet, or windy it might be!

Date:

Astronomy

Jul. 24, 2013 Rise Set
Actual Time 5:35 AM MDT 8:11 PM MDT
Civil Twilight 5:03 AM MDT 8:42 PM MDT
Nautical Twilight 4:24 AM MDT 9:22 PM MDT
Astronomical Twilight 3:39 AM MDT 10:06 PM MDT
Moon 9:16 PM MDT 7:59 AM MDT
Length of Visible Light 15h 39m
Length of Day
14h 35m
Waning Gibbous, 94% of the Moon is Illuminated
Jul 24
Waning Gibbous
Jul 29
Last Quarter
Aug 6
New
Aug 14
First Quarter
Aug 20
Full

Hourly Weather History & Observations

Time (MDT) Temp. Heat Index Dew Point Humidity Pressure Visibility Wind Dir Wind Speed Gust Speed Precip Events Conditions
12:15 AM 63.9 °F - 61.0 °F 90% 30.13 in 10.0 mi Calm Calm - N/A   Clear
12:35 AM 63.3 °F - 59.9 °F 89% 30.14 in 10.0 mi Calm Calm - N/A   Clear
12:55 AM 62.6 °F - 59.9 °F 91% 30.14 in 10.0 mi Calm Calm - N/A   Clear
1:15 AM 62.2 °F - 59.9 °F 92% 30.14 in 10.0 mi Calm Calm - N/A   Clear
1:35 AM 62.1 °F - 60.1 °F 93% 30.14 in 10.0 mi Calm Calm - N/A   Clear
1:55 AM 61.3 °F - 59.0 °F 92% 30.14 in 10.0 mi Calm Calm - N/A   Clear
2:15 AM 61.5 °F - 59.4 °F 93% 30.15 in 10.0 mi East 3.5 mph - N/A   Clear
2:35 AM 62.2 °F - 59.5 °F 91% 30.15 in 10.0 mi Calm Calm - N/A   Clear
2:55 AM 61.7 °F - 59.5 °F 93% 30.15 in 10.0 mi Calm Calm - N/A   Clear
3:15 AM 61.9 °F - 59.7 °F 93% 30.15 in 7.0 mi Calm Calm - N/A   Clear
3:35 AM 61.5 °F - 59.2 °F 92% 30.14 in 10.0 mi Calm Calm - N/A   Clear
3:55 AM 62.6 °F - 60.1 °F 91% 30.14 in 7.0 mi Calm Calm - N/A   Clear
3:56 AM 62.6 °F - 60.8 °F 94% 30.14 in 7.0 mi Calm Calm - N/A   Clear
4:15 AM 62.6 °F - 60.1 °F 91% 30.14 in 7.0 mi Calm Calm - N/A   Clear
4:35 AM 61.9 °F - 59.7 °F 93% 30.15 in 5.0 mi Calm Calm - N/A   Clear
4:55 AM 60.4 °F - 58.3 °F 93% 30.15 in 5.0 mi Calm Calm - N/A   Clear
5:15 AM 61.2 °F - 59.2 °F 93% 30.15 in 5.0 mi Calm Calm - N/A   Clear
5:35 AM 59.9 °F - 58.1 °F 94% 30.15 in 1.8 mi West 5.8 mph - N/A   Mist
5:55 AM 59.9 °F - 58.3 °F 94% 30.16 in 1.8 mi Calm Calm - N/A   Mist
6:15 AM 60.3 °F - 58.8 °F 95% 30.16 in 2.5 mi Calm Calm - N/A   Clear
6:35 AM 61.3 °F - 59.7 °F 94% 30.16 in 3.0 mi Calm Calm - N/A   Clear
6:55 AM 63.3 °F - 61.2 °F 93% 30.16 in 3.0 mi Calm Calm - N/A   Clear
7:15 AM 64.2 °F - 61.9 °F 92% 30.16 in 4.0 mi Calm Calm - N/A   Clear
7:35 AM 65.5 °F - 62.8 °F 91% 30.16 in 4.0 mi Calm Calm - N/A   Clear
7:55 AM 67.1 °F - 63.9 °F 89% 30.17 in 5.0 mi Calm Calm - N/A   Clear
8:15 AM 68.2 °F - 64.0 °F 87% 30.17 in 7.0 mi Calm Calm - N/A   Clear
8:35 AM 70.5 °F - 64.4 °F 81% 30.18 in 10.0 mi SW 3.5 mph - N/A   Scattered Clouds
8:55 AM 71.2 °F - 63.9 °F 77% 30.18 in 10.0 mi South 3.5 mph - N/A   Scattered Clouds
9:15 AM 73.4 °F - 63.0 °F 70% 30.18 in 10.0 mi South 5.8 mph - N/A   Scattered Clouds
9:35 AM 74.1 °F - 63.0 °F 68% 30.18 in 10.0 mi SE 4.6 mph - N/A   Clear
9:55 AM 75.2 °F - 62.4 °F 64% 30.18 in 10.0 mi SSE 5.8 mph - N/A   Clear
10:15 AM 77.0 °F - 61.9 °F 59% 30.17 in 10.0 mi South 3.5 mph - N/A   Clear
10:35 AM 79.0 °F - 61.3 °F 55% 30.17 in 10.0 mi WSW 4.6 mph - N/A   Clear
10:55 AM 79.9 °F - 61.3 °F 53% 30.17 in 10.0 mi SSE 8.1 mph - N/A   Clear
11:15 AM 81.3 °F 82.3 °F 62.2 °F 52% 30.17 in 10.0 mi SSW 5.8 mph - N/A   Clear
11:35 AM 81.5 °F 82.5 °F 62.1 °F 52% 30.17 in 10.0 mi South 4.6 mph - N/A   Clear
11:55 AM 82.6 °F 82.9 °F 60.6 °F 47% 30.16 in 10.0 mi WSW 5.8 mph - N/A   Clear
12:15 PM 83.5 °F 83.7 °F 61.0 °F 46% 30.15 in 10.0 mi WSW 8.1 mph - N/A   Clear
12:35 PM 84.6 °F 84.0 °F 58.6 °F 41% 30.14 in 10.0 mi WSW 3.5 mph - N/A   Clear
12:55 PM 84.9 °F 84.8 °F 59.9 °F 43% 30.14 in 10.0 mi SSW 8.1 mph - N/A   Clear
1:15 PM 86.0 °F 85.0 °F 57.9 °F 38% 30.13 in 10.0 mi SW 8.1 mph - N/A   Clear
1:35 PM 87.1 °F 86.1 °F 57.6 °F 37% 30.11 in 10.0 mi SSW 6.9 mph - N/A   Scattered Clouds
1:55 PM 88.3 °F 87.1 °F 57.4 °F 35% 30.11 in 10.0 mi SSW 3.5 mph - N/A   Scattered Clouds
2:15 PM 88.2 °F 87.1 °F 57.9 °F 36% 30.11 in 10.0 mi West 3.5 mph - N/A   Scattered Clouds
2:35 PM 86.9 °F 86.1 °F 58.6 °F 38% 30.11 in 10.0 mi SW 4.6 mph - N/A   Scattered Clouds
2:55 PM 86.9 °F 84.9 °F 54.0 °F 32% 30.11 in 10.0 mi Calm Calm - N/A   Clear
3:15 PM 85.6 °F 84.5 °F 56.7 °F 37% 30.11 in 10.0 mi SSW 6.9 mph - N/A   Scattered Clouds
3:35 PM 85.8 °F 84.3 °F 55.4 °F 35% 30.10 in 10.0 mi SSW 4.6 mph - N/A   Scattered Clouds
3:55 PM 86.4 °F 84.7 °F 55.0 °F 34% 30.10 in 10.0 mi SSE 5.8 mph - N/A   Clear
4:15 PM 85.8 °F 84.2 °F 54.5 °F 34% 30.10 in 10.0 mi SSE 4.6 mph - N/A   Clear
4:35 PM 86.4 °F - 52.7 °F 31% 30.10 in 10.0 mi SE 6.9 mph - N/A   Clear
4:55 PM 85.5 °F 83.8 °F 53.8 °F 34% 30.10 in 10.0 mi SSE 5.8 mph - N/A   Scattered Clouds
5:15 PM 84.6 °F 83.2 °F 55.2 °F 36% 30.09 in 10.0 mi SSE 5.8 mph - N/A   Scattered Clouds
5:35 PM 83.7 °F 82.7 °F 55.4 °F 38% 30.09 in 10.0 mi ESE 3.5 mph - N/A Thunderstorm Mostly Cloudy
5:55 PM 75.4 °F - 54.1 °F 48% 30.11 in 3.0 mi NNW 29.9 mph 65.6 mph N/A Thunderstorm Haze
6:15 PM 65.8 °F - 57.2 °F 74% 30.13 in 4.0 mi NNE 24.2 mph 41.4 mph 0.09 in Rain , Thunderstorm Light Thunderstorms and Rain
6:35 PM 67.1 °F - 58.3 °F 73% 30.11 in 10.0 mi NE 16.1 mph - 0.09 in Rain Light Rain
6:55 PM 68.4 °F - 58.8 °F 71% 30.11 in 10.0 mi NNE 15.0 mph - 0.09 in Rain Light Rain
7:15 PM 68.4 °F - 58.8 °F 71% 30.13 in 10.0 mi North 13.8 mph 17.3 mph 0.01 in Rain , Thunderstorm Light Thunderstorms and Rain
7:35 PM 66.9 °F - 59.0 °F 76% 30.14 in 10.0 mi NW 16.1 mph - 0.03 in Rain , Thunderstorm Thunderstorms and Rain
7:55 PM 66.4 °F - 57.0 °F 72% 30.14 in 10.0 mi NNW 20.7 mph - 0.04 in Rain , Thunderstorm Light Thunderstorms and Rain
8:15 PM 66.6 °F - 57.4 °F 72% 30.17 in 10.0 mi NNW 12.7 mph 20.7 mph 0.02 in Rain , Thunderstorm Rain
8:35 PM 70.2 °F - 56.5 °F 62% 30.15 in 5.0 mi South 16.1 mph - 0.15 in Rain , Thunderstorm Thunderstorms and Rain
8:55 PM 67.5 °F - 58.6 °F 73% 30.14 in 10.0 mi SW 19.6 mph 25.3 mph 0.17 in Rain , Thunderstorm Light Thunderstorms and Rain
9:15 PM 69.1 °F - 55.4 °F 62% 30.13 in 10.0 mi SSW 17.3 mph 26.5 mph 0.01 in Rain , Thunderstorm Light Thunderstorms and Rain
9:35 PM 68.9 °F - 55.0 °F 61% 30.12 in 10.0 mi SSW 15.0 mph 21.9 mph 0.01 in Rain Light Rain
9:55 PM 68.4 °F - 56.3 °F 65% 30.14 in 10.0 mi SW 13.8 mph 18.4 mph 0.01 in Rain Light Rain
10:15 PM 66.6 °F - 57.2 °F 72% 30.15 in 10.0 mi SSW 19.6 mph 25.3 mph 0.01 in Rain Rain
10:35 PM 64.8 °F - 58.3 °F 79% 30.18 in 10.0 mi SW 18.4 mph 27.6 mph 0.03 in Rain Rain
10:55 PM 63.5 °F - 60.1 °F 89% 30.21 in 5.0 mi SW 15.0 mph 25.3 mph 0.13 in Rain , Thunderstorm Rain
11:15 PM 62.8 °F - 59.9 °F 90% 30.22 in 5.0 mi SW 11.5 mph 21.9 mph 0.10 in Rain Heavy Rain
11:35 PM 62.8 °F - 59.9 °F 90% 30.22 in 5.0 mi South 9.2 mph - 0.22 in Rain Heavy Rain
11:55 PM 62.8 °F - 59.9 °F 90% 30.20 in 10.0 mi SSE 6.9 mph - 0.26 in Rain Light Rain